Regional Weather Roundup
Issued by NWS

Home | Current Version | Previous Version | Graphics & Text | Print | Product List | Glossary On
Versions: 1 2 3 4 5 6 7 8 9 10 11 12 13 14 15 16 17 18 19 20 21 22 23 24 25 26 27 28 29 30 31 32 33 34 35 36 37 38 39 40 41 42 43 44 45 46 47 48 49 50
000
ASUS43 KOAX 280802
RWRNE

WEATHER ROUNDUP FOR NEBRASKA
NATIONAL WEATHER SERVICE OMAHA NE
300 AM CDT SAT MAR 28 2015

NOTES: SATELLITE DATA IS BEING USED TO AUGMENT CLOUD COVER ABOVE
       12000 FEET.
       "FAIR" INDICATES FEW OR NO CLOUDS BELOW 12,000 FEET WITH NO
       SIGNIFICANT WEATHER AND/OR OBSTRUCTIONS TO VISIBILITY.

  * THESE STATIONS DO NOT REPORT WEATHER SUCH AS RAIN...SNOW OR FOG.

NEZ001>004-019>022-054>056-280900-
NEBRASKA PANHANDLE

CITY           SKY/WX    TMP DP  RH WIND       PRES   REMARKS
SCOTTSBLUFF    CLEAR     40  31  70 N3        30.00F
ALLIANCE       MOCLDY    37  31  78 W7        29.99F WCI  32
CHADRON        MOCLDY    38  32  79 SW5       29.97F WCI  34
KIMBALL        CLEAR     38  28  66 W7        30.03F WCI  32
SIDNEY         CLEAR     36  28  73 W9        30.02F WCI  29
$$

NEZ057>060-069>072-079>082-280900-
SOUTHWEST NEBRASKA

CITY           SKY/WX    TMP DP  RH WIND       PRES   REMARKS
NORTH PLATTE   CLEAR     31  28  89 NW7       29.97F WCI  24
IMPERIAL         N/A     42  30  62 NW7       29.99S
MCCOOK         MOCLDY    39  32  76 NW5       29.97S
$$

NEZ005>010-023>029-035>040-094-280900-
NORTH CENTRAL NEBRASKA

CITY           SKY/WX    TMP DP  RH WIND       PRES   REMARKS
VALENTINE      CLEAR     30  26  85 W3        29.97S
AINSWORTH      PTCLDY    35  31  83 CALM      29.97S
BROKEN BOW     CLEAR     32  30  92 CALM      29.96F
ORD            MOCLDY    26  21  81 CALM      29.99R
$$

NEZ041-046>049-061>064-073>077-083>087-280900-
SOUTH CENTRAL NEBRASKA

CITY           SKY/WX    TMP DP  RH WIND       PRES   REMARKS
GRAND ISLAND   CLOUDY    32  24  72 CALM      30.02R
HASTINGS       PTCLDY    33  24  69 SE3       29.98S
HEBRON         PTCLDY    32  22  65 SE3       30.00F
KEARNEY *      PTCLDY    30  21  69 CALM      29.98S
$$

NEZ011>018-030>034-042>045-280900-
NORTHEAST NEBRASKA

CITY           SKY/WX    TMP DP  RH WIND       PRES   REMARKS
NORFOLK        CLOUDY    32  26  78 SE7       30.04S WCI  26
ALBION         CLOUDY    33  26  73 E6        30.03R WCI  28
BLAIR          CLOUDY    35  24  65 SE10      30.08S WCI  27
COLUMBUS *     CLOUDY    32  21  64 E6        30.07R WCI  26
TEKAMAH        CLOUDY    35  25  66 E13       30.11R WCI  26
$$

NEZ050>053-065>068-078-088>093-280900-
SOUTHEAST NEBRASKA

CITY           SKY/WX    TMP DP  RH WIND       PRES   REMARKS
LINCOLN        CLOUDY    36  22  56 SE9       30.08R WCI  29
OMAHA EPPLEY   CLOUDY    35  26  69 SE12      30.11R WCI  27
FALLS CITY     CLOUDY    36  26  67 SE7       30.08F WCI  30
NEBRASKA CITY  CLOUDY    34  24  65 SE8       30.08S WCI  28
PLATTSMOUTH    CLOUDY    34  24  68 E7        30.09R WCI  28
$$

NEZ044-045-051>053-067-280900-
OMAHA AREA

CITY           SKY/WX    TMP DP  RH WIND       PRES   REMARKS
OMAHA EPPLEY   CLOUDY    35  26  69 SE12      30.11R WCI  27
BLAIR          CLOUDY    35  24  65 SE10      30.08S WCI  27
OFFUTT AFB     CLOUDY    34  26  71 SE10      30.09S WCI  26
PLATTSMOUTH    CLOUDY    34  24  68 E7        30.09R WCI  28
$$


USA.gov is the U.S. government's official web portal to all federal, state and local government web resources and services.